Lexington Weather

Lexington, Massachusetts, USA

70°F
8/17/2022 7:08pm 
  • Lexington Conditions: Overcast
  • Temperature: 69.6°F / 20.9°CColder 0.7°F than last hour.
  • Dew Point: 56.8°FDecreased 2.6°Fsince last hour.
  • Relative Humidity: 64%Decreased 4.0% since last hour.
  • Wind: Calm, 10-min avg: Calm, gust: None
  • Barometer: 29.85 in Steady
  • Visibility: 10 miles
  • Rain Today: 0.00 in
  •   

Regional Weather Roundup
for Boston, MA

        
000
ASUS41 KBOX 110610
RWRBOX

REGIONAL WEATHER ROUNDUP
NATIONAL WEATHER SERVICE BOSTON/NORTON MA
200 AM EDT THU AUG 11 2022

NOTE:  "FAIR" INDICATES FEW OR NO CLOUDS BELOW 12,000 FEET WITH NO 
SIGNIFICANT WEATHER AND/OR OBSTRUCTIONS TO VISIBILITY.

MAZALL-110700-
EASTERN MASSACHUSETTS
  
CITY           SKY/WX    TMP DP  RH WIND       PRES   REMARKS
BOSTON         CLOUDY    67  64  90 E3        29.98F                  
6HR MIN TEMP:  65; 6HR MAX TEMP:  67;                                

BEVERLY        CLOUDY    66  64  93 CALM      29.98F                  
LAWRENCE       CLOUDY    68  63  84 CALM      30.00F                  
BEDFORD        CLOUDY    69  64  84 CALM      29.97F                  
BLUE HILL      NOT AVBL                                               
NORWOOD        CLOUDY    69  64  84 CALM      29.98F                  
MARSHFIELD     CLOUDY    68  64  88 CALM      29.98F                  
PLYMOUTH       MOCLDY    68  65  90 CALM      29.99S                  
TAUNTON        CLOUDY    68  65  90 SE3       29.98F                  
NEW BEDFORD    MOCLDY    68  66  93 CALM      29.98F                  
$$

MAZALL-110700-
CAPE COD AND THE ISLANDS
  
CITY           SKY/WX    TMP DP  RH WIND       PRES   REMARKS
FALMOUTH       CLOUDY    68  66  94 CALM      29.99S                  
HYANNIS        PTCLDY    68  64  87 CALM      29.98F                  
CHATHAM        CLOUDY    71  65  81 CALM      30.00F                  
NANTUCKET      CLOUDY    73  68  84 CALM      30.00S                  
MARTHAS VNYRD  CLOUDY    71  68  90 SE3       29.99F                  
$$
 
MAZALL-110700-
CENTRAL AND WESTERN MASSACHUSETTS
  
CITY           SKY/WX    TMP DP  RH WIND       PRES   REMARKS
WORCESTER      PTCLDY    67  65  93 SW3       30.00F                  
6HR MIN TEMP:  66; 6HR MAX TEMP:  74;                                

FITCHBURG      NOT AVBL                                               
ORANGE         CLOUDY    65  63  93 CALM      30.00F                  
SPRINGFIELD    NOT AVBL                                               
WESTFIELD      PTCLDY    66  61  84 CALM      29.98F                  
NORTH ADAMS    CLOUDY    65  61  87 CALM      30.00F                  
PITTSFIELD     PTCLDY    60  58  92 CALM      30.00F                  
$$
 
RIZALL-110700-
RHODE ISLAND
  
CITY           SKY/WX    TMP DP  RH WIND       PRES   REMARKS
PROVIDENCE     MOCLDY    71  68  90 SW7       29.99F                  
6HR MIN TEMP:  71; 6HR MAX TEMP:  74;                                

NEWPORT        CLOUDY    69  68  96 S5        29.99F                  
BLOCK ISLAND   CLOUDY    70  68  93 CALM      30.00F                  
SMITHFIELD     CLOUDY    68  67  96 CALM      30.00F                  
WESTERLY       CLOUDY    71  69  93 CALM      29.99F                  
$$
 
CTZALL-110700-
CONNECTICUT
  
CITY           SKY/WX    TMP DP  RH WIND       PRES   REMARKS
BRADLEY INTL   MOCLDY    71  61  70 CALM      29.97F                  
6HR MIN TEMP:  70; 6HR MAX TEMP:  76;                                

HARTFORD       MOCLDY    74  69  85 SE3       29.97F                  
BRIDGEPORT     MOCLDY    76  71  85 CALM      29.96F                  
DANBURY        PTCLDY    74  63  68 NE3       29.99F                  
GROTON         CLOUDY    74  68  81 E3        29.97F                  
NEW HAVEN      MOCLDY    76  72  87 E3        29.97F                  
CHESTER        CLOUDY    72  72 100 CALM      29.99F                  
MERIDEN        CLOUDY    74  69  85 CALM      29.97F                  
WILLIMANTIC    CLOUDY    71  68  90 SE3       29.99S                  
OXFORD         MOCLDY    69  69 100 CALM      30.00F                  
$$

MEZ002-015-021-024-NHZ003-005-008-011-012-014-VTZ005-008-110700-
NORTHERN NEW ENGLAND
  
CITY           SKY/WX    TMP DP  RH WIND       PRES   REMARKS
PORTLAND ME    MOCLDY    63  60  90 CALM      29.99S                  
6HR MIN TEMP:  62; 6HR MAX TEMP:  66;                                

BANGOR ME      CLOUDY    65  61  87 S3        29.98F                  
CONCORD NH     MOCLDY    63  60  90 CALM      29.99F                  
MANCHESTER NH  CLOUDY    67  61  81 CALM      29.97F                  
NASHUA NH      CLOUDY    68  67  96 CALM      29.99F                  
PORTSMOUTH NH  CLOUDY    65  61  88 CALM      29.99F                  
JAFFREY NH     MOCLDY    66  62  87 CALM      30.01F                  
KEENE NH       MOCLDY    65  64  97 CALM        N/A                   
BURLINGTON VT  MOCLDY    65  61  87 E3        29.96F                  
MT. WASHINGTON FOG       45  45 100 W18         N/A  VSB 1/16         
$$

NYZ052-076-110700-
EASTERN NEW YORK
  
CITY           SKY/WX    TMP DP  RH WIND       PRES   REMARKS
ALBANY         CLOUDY    69  60  73 CALM      29.98F                  
6HR MIN TEMP:  68; 6HR MAX TEMP:  75;                                

NEW YORK CITY  MOCLDY    78  68  71 S3        29.94F                  
6HR MIN TEMP:  77; 6HR MAX TEMP:  80;                                

$$
 
ANZALL-110700-
MARINE OBSERVATIONS
  
STATION/POSITION TIME  TEMP    WIND        PRES    VSBY  WAVE
                       AIR SEA DIR/SP/G                  HT/PER
                 (UTC) (F)     (DEG/KT/KT) (MB)    (MI)  (FT/S)
BOSTON BUOY      NOT AVBL
BUZZARDS BAY     NOT AVBL
NANTUCKET SOUND  NOT AVBL
MASS BAY-STELLWA NOT AVBL
ISLE OF SHOALS   NOT AVBL
S OF BLOCK IS    NOT AVBL
$$

......................KEY.........................
  SKY/WX - SKY CONDITION/PRESENT WEATHER
  TMP    - TEMPERATURE IN FAHRENHEIT
  DWPT   - DEWPOINT IN FAHRENHEIT
  RH     - RELATIVE HUMIDITY IN PERCENT
  WIND   - DIRECTION AND SPEED IN MPH
  PRES   - MEAN SEA LEVEL PRESSURE IN INCHES OF HG
  WCI    - WIND CHILL INDEX
  VSB    - VISIBILITY IN MILES
  HX     - HEAT INDEX
  TC     - TEMPERATURE IN CELSIUS
  VRB    - VARIABLE WIND DIRECTION
  N/A    - NOT AVAILABLE
  
      

Other recent Regional Weather Roundups

Wed Aug 17, 6:10pm

Wed Aug 17, 5:10pm

Wed Aug 17, 4:10pm

Wed Aug 17, 3:10pm

Wed Aug 17, 2:10pm

Wed Aug 17, 1:10pm

Wed Aug 17, 12:10pm

Wed Aug 17, 11:10am

Wed Aug 17, 10:10am

Wed Aug 17, 9:10am

Wed Aug 17, 8:10am

Wed Aug 17, 7:10am

Wed Aug 17, 6:10am

Wed Aug 17, 5:10am

Wed Aug 17, 4:10am

Wed Aug 17, 3:10am

Wed Aug 17, 2:10am

Wed Aug 17, 1:10am

Wed Aug 17, 12:10am

Tue Aug 16, 11:10pm

Tue Aug 16, 10:10pm

Tue Aug 16, 9:10pm

Tue Aug 16, 8:10pm

Tue Aug 16, 7:10pm

Tue Aug 16, 6:10pm

Tue Aug 16, 5:10pm

Tue Aug 16, 4:10pm

Tue Aug 16, 3:10pm

Tue Aug 16, 2:10pm

Tue Aug 16, 1:10pm

Tue Aug 16, 12:10pm

Tue Aug 16, 11:10am

Tue Aug 16, 10:10am

Tue Aug 16, 9:10am

Tue Aug 16, 8:10am

Tue Aug 16, 7:10am

Tue Aug 16, 6:10am

Tue Aug 16, 5:10am

Tue Aug 16, 4:10am

Tue Aug 16, 3:10am

Tue Aug 16, 2:10am

Tue Aug 16, 1:10am

Tue Aug 16, 12:10am

Mon Aug 15, 11:10pm

Mon Aug 15, 10:10pm

Mon Aug 15, 9:10pm

Mon Aug 15, 8:10pm

Mon Aug 15, 7:10pm

Mon Aug 15, 6:10pm

Mon Aug 15, 5:10pm

Mon Aug 15, 4:10pm

Mon Aug 15, 3:10pm

Mon Aug 15, 2:10pm

Mon Aug 15, 1:10pm

Mon Aug 15, 12:10pm

Mon Aug 15, 11:10am

Mon Aug 15, 10:10am

Mon Aug 15, 9:10am

Mon Aug 15, 8:10am

Mon Aug 15, 7:10am

Mon Aug 15, 6:10am

Mon Aug 15, 5:10am

Mon Aug 15, 4:10am

Mon Aug 15, 3:10am

Mon Aug 15, 2:10am

Mon Aug 15, 1:10am

Mon Aug 15, 12:10am

Sun Aug 14, 11:10pm

Sun Aug 14, 10:10pm

Sun Aug 14, 9:10pm

Sun Aug 14, 8:10pm

Sun Aug 14, 7:10pm

Sun Aug 14, 6:10pm

Sun Aug 14, 5:10pm

Sun Aug 14, 4:10pm

Sun Aug 14, 3:10pm

Sun Aug 14, 2:10pm

Sun Aug 14, 1:10pm

Sun Aug 14, 12:10pm

Sun Aug 14, 11:10am

Sun Aug 14, 10:10am

Sun Aug 14, 9:10am

Sun Aug 14, 8:10am

Sun Aug 14, 7:10am

Sun Aug 14, 6:10am

Sun Aug 14, 5:10am

Sun Aug 14, 4:10am

Sun Aug 14, 3:10am

Sun Aug 14, 2:10am

Sun Aug 14, 1:10am

Sun Aug 14, 12:10am

Sat Aug 13, 11:10pm

Sat Aug 13, 10:10pm

Sat Aug 13, 9:10pm

Sat Aug 13, 8:10pm

Sat Aug 13, 7:10pm

Sat Aug 13, 6:10pm

Sat Aug 13, 5:10pm

Sat Aug 13, 4:10pm

Sat Aug 13, 3:10pm

Sat Aug 13, 2:10pm

Sat Aug 13, 1:10pm

Sat Aug 13, 12:10pm

Sat Aug 13, 11:10am

Sat Aug 13, 10:10am

Sat Aug 13, 9:10am

Sat Aug 13, 8:10am

Sat Aug 13, 7:10am

Sat Aug 13, 6:10am

Sat Aug 13, 5:10am

Sat Aug 13, 4:10am

Sat Aug 13, 3:10am

Sat Aug 13, 2:10am

Sat Aug 13, 1:10am

Sat Aug 13, 12:10am

Fri Aug 12, 11:10pm

Fri Aug 12, 10:10pm

Fri Aug 12, 9:10pm

Fri Aug 12, 8:10pm

Fri Aug 12, 7:10pm

Fri Aug 12, 6:10pm

Fri Aug 12, 5:10pm

Fri Aug 12, 4:10pm

Fri Aug 12, 3:10pm

Fri Aug 12, 2:10pm

Fri Aug 12, 1:10pm

Fri Aug 12, 12:10pm

Fri Aug 12, 11:10am

Fri Aug 12, 10:10am

Fri Aug 12, 9:10am

Fri Aug 12, 8:10am

Fri Aug 12, 7:10am

Fri Aug 12, 6:10am

Fri Aug 12, 5:10am

Fri Aug 12, 4:10am

Fri Aug 12, 3:10am

Fri Aug 12, 2:10am

Fri Aug 12, 1:10am

Fri Aug 12, 12:10am

Thu Aug 11, 11:10pm

Thu Aug 11, 10:10pm

Thu Aug 11, 9:10pm

Thu Aug 11, 8:10pm

Thu Aug 11, 7:10pm

Thu Aug 11, 6:10pm

Thu Aug 11, 5:10pm

Thu Aug 11, 4:10pm

Thu Aug 11, 3:10pm

Thu Aug 11, 2:10pm

Thu Aug 11, 1:10pm

Thu Aug 11, 12:10pm

Thu Aug 11, 11:10am

Thu Aug 11, 10:10am

Thu Aug 11, 9:10am

Thu Aug 11, 8:10am

Thu Aug 11, 7:10am

Thu Aug 11, 6:10am

Thu Aug 11, 5:10am

Thu Aug 11, 4:10am

Thu Aug 11, 3:10am

Thu Aug 11, 1:10am

Thu Aug 11, 12:10am

Wed Aug 10, 11:10pm

Wed Aug 10, 10:10pm

Wed Aug 10, 9:10pm

Wed Aug 10, 8:10pm

Wed Aug 10, 7:10pm

Meta data:

ID: 069c58ee-3937-418c-a3a3-2e835153ae19
Link: https://api.weather.gov/products/069c58ee-3937-418c-a3a3-2e835153ae19